Home   Weather   Potsdam   Past weeks

Flag for Germany Past Weather in Potsdam, Brandenburg, Germany — Yesterday and Last 2 Weeks

Now
52 °F

Sunny.


Feels Like: 48 °F
Forecast: 36 / 56 °F
Wind: 10 mph from West

Location: Berlin-Tegel

Current Time: Apr 27, 2017 at 6:53:45 pm

Latest Report: Apr 27, 2017 at 6:20 pm


Visibility: 10 mi

Pressure: 29.95 "Hg

Humidity: 38%

Dew Point: 27 °F

Location of PotsdamLocation

Past Weather in Potsdam — Graph

°F

Potsdam Temperature Yesterday

Maximum temperature yesterday: 54 °F (at 6:20 pm)
Minimum temperature yesterday: 34 °F (at 3:50 am)
Average temperature yesterday: 44 °F

High & Low Weather Summary for the Past Weeks

 TemperatureHumidityPressure
High59 °F (Apr 21, 2:50 pm)100% (Apr 17, 4:20 am)30.60 "Hg (Apr 17, 4:20 am)
Low28 °F (Apr 20, 4:20 am)33% (Apr 27, 3:20 pm)29.56 "Hg (Apr 25, 5:50 am)
Average44 °F70%30.02 "Hg
* Reported Apr 12 5:20 pm — Apr 27 5:50 pm, Potsdam, Weather by CustomWeather, © 2017

Note: Actual official high and low records may vary slightly from our data, if they occured in-between our weather recording intervals... More about our weather records

Advertising

Potsdam Weather History for the Previous 24 Hours

Scroll right to see more
 ConditionsComfort  
Time TempWeatherWind HumidityBarometerVisibility
5:50 pm
Thu, Apr 27
52 °FPassing clouds.13 mph35%29.95 "HgN/A
5:20 pm52 °FPassing clouds.9 mph35%29.95 "HgN/A
4:50 pm52 °FPassing clouds.8 mph35%29.95 "HgN/A
4:20 pm54 °FPassing clouds.10 mph35%29.95 "HgN/A
3:50 pm54 °FPassing clouds.10 mph35%29.95 "HgN/A
3:20 pm54 °FScattered showers. Scattered clouds.10 mph33%29.95 "HgN/A
2:50 pm52 °FScattered showers. Scattered clouds.10 mph35%29.95 "HgN/A
2:20 pm52 °FScattered clouds.10 mph38%29.95 "HgN/A
1:50 pm52 °FScattered clouds.12 mph41%29.95 "HgN/A
12:50 pm52 °FScattered clouds.10 mph41%29.95 "HgN/A
12:20 pm48 °FScattered clouds.9 mph46%29.95 "HgN/A
11:50 am48 °FScattered clouds.6 mph50%29.95 "HgN/A
11:20 am48 °FPassing clouds.7 mph54%29.95 "HgN/A
10:50 am48 °FPassing clouds.8 mph54%29.95 "HgN/A
10:20 am46 °FPassing clouds.7 mph57%29.95 "HgN/A
9:50 am46 °FPassing clouds.6 mph62%29.95 "HgN/A
9:20 am46 °FPassing clouds.5 mph62%29.95 "HgN/A
8:50 am43 °FSunny.2 mph76%29.95 "Hg10 mi
8:20 am39 °FSunny.2 mph87%29.95 "Hg10 mi
7:50 am37 °FSunny.2 mph93%29.95 "Hg10 mi
6:50 am34 °FSunny.3 mph93%29.92 "Hg10 mi
6:20 am32 °FSunny.2 mph100%29.92 "Hg10 mi
5:50 am30 °FSunny.1 mph93%29.92 "Hg10 mi
4:50 am32 °FClear.2 mph93%29.92 "Hg10 mi
4:20 am32 °FClear.1 mph93%29.92 "Hg10 mi
3:50 am32 °FClear.No wind87%29.92 "Hg10 mi
3:20 am34 °FClear.1 mph87%29.92 "Hg10 mi
2:50 am34 °FClear.2 mph93%29.92 "Hg10 mi
2:20 am34 °FClear.2 mph81%29.92 "Hg10 mi
1:50 am34 °FClear.3 mph87%29.92 "Hg10 mi
12:50 am36 °FClear.1 mph81%29.92 "Hg10 mi
11:50 pm
Wed, Apr 26
43 °FClear.5 mph66%29.92 "Hg10 mi
11:20 pm43 °FClear.2 mph61%29.89 "Hg10 mi
10:50 pm43 °FClear.1 mph53%29.89 "Hg10 mi
10:20 pm45 °FClear.2 mph53%29.89 "Hg10 mi
9:50 pm45 °FClear.2 mph53%29.89 "Hg10 mi
9:20 pm46 °FClear.3 mph46%29.89 "Hg10 mi
8:50 pm46 °FClear.2 mph46%29.89 "Hg10 mi
8:20 pm46 °FScattered showers. Broken clouds.5 mph43%29.89 "HgN/A
7:50 pm50 °FScattered showers. Broken clouds.2 mph37%29.89 "HgN/A
7:20 pm52 °FScattered showers. Scattered clouds.1 mph38%29.86 "HgN/A
6:50 pm52 °FScattered showers. Scattered clouds.6 mph44%29.86 "HgN/A
6:20 pm54 °FScattered showers. Scattered clouds.2 mph35%29.86 "HgN/A
Weather by CustomWeather, © 2017

See weather overviewHow to use our weather pages